N1LTP Weather Reports


time (UTC)temp
F
wind
direction
speed
knots
gust
knots
rain 1hr
in
rain 24hr
in
rain mn
in
humidity
%
barometer
mb
20220627203021 69 115 0.0 2.6 0.28 0.82 0.82 96 1012.1
20220627201522 69 120 0.0 2.6 0.31 0.77 0.77 96 1012.1
20220627200019 69 142 0.0 2.6 0.30 0.70 0.70 96 1012.1
20220627194529 69 142 0.0 3.5 0.30 0.62 0.62 95 1012.1
20220627193018 69 79 0.0 2.6 0.27 0.53 0.53 95 1012.4
20220627191515 69 44 0.0 1.7 0.23 0.46 0.46 95 1012.3
20220627190014 69 45 0.0 1.7 0.17 0.40 0.40 95 1012.2
20220627184512 69 129 0.0 2.6 0.10 0.31 0.31 95 1012.4
20220627183011 69 68 0.0 1.7 0.10 0.26 0.26 94 1012.3
20220627181509 69 85 0.0 1.7 0.13 0.23 0.23 94 1012.4
20220627180008 69 337 0.0 1.7 0.19 0.23 0.23 94 1012.3
20220627174506 70 334 0.0 2.6 0.19 0.20 0.20 93 1012.5
20220627173008 70 221 0.0 1.7 0.16 0.16 0.16 93 1012.5
20220627171503 70 153 0.0 3.5 0.10 0.10 0.10 92 1012.6
20220627170001 71 326 0.0 3.5 0.04 0.04 0.04 92 1012.7
20220627164501 71 333 0.0 2.6 0.00 0.00 0.00 90 1012.7
20220627163108 72 230 0.9 2.6 0.00 0.00 0.00 89 1012.8
20220627161558 72 114 0.0 4.3 0.00 0.00 0.00 88 1012.8
20220627160058 72 78 0.0 2.6 0.00 0.00 0.00 88 1012.9
20220627154556 72 128 0.9 4.3 0.00 0.00 0.00 87 1012.9
20220627153056 72 290 0.0 3.5 0.00 0.00 0.00 87 1012.9
20220627151558 72 62 0.0 2.6 0.00 0.00 0.00 87 1012.9
20220627150053 71 140 0.9 3.5 0.00 0.00 0.00 87 1012.7
20220627144552 72 234 0.9 7.0 0.00 0.00 0.00 86 1012.7
20220627143051 72 139 0.0 4.3 0.00 0.00 0.00 86 1012.7
20220627141555 72 137 0.9 4.3 0.00 0.00 0.00 86 1012.7
20220627140100 72 130 0.0 5.2 0.00 0.00 0.00 86 1012.8
20220627134548 72 71 0.9 3.5 0.00 0.00 0.00 85 1012.9
20220627133047 72 34 0.9 4.3 0.00 0.00 0.00 85 1012.9
20220627131551 72 102 0.0 2.6 0.00 0.00 0.00 85 1012.8
20220627130045 72 171 0.0 6.1 0.00 0.00 0.00 85 1012.9
20220627124544 72 131 0.9 6.1 0.00 0.00 0.00 84 1013.1
20220627123044 72 177 0.0 3.5 0.00 0.00 0.00 84 1013.1
20220627121542 72 221 0.0 2.6 0.00 0.00 0.00 83 1013.1
20220627120042 72 171 0.9 5.2 0.00 0.00 0.00 83 1013.0
20220627114548 73 298 0.9 7.0 0.00 0.00 0.00 83 1013.1
20220627113036 71 231 1.7 5.2 0.00 0.00 0.00 84 1013.2
20220627111532 70 355 0.9 3.5 0.00 0.00 0.00 87 1013.2
20220627110028 69 170 0.9 4.3 0.00 0.00 0.00 88 1013.2
20220627104524 68 309 0.0 3.5 0.00 0.00 0.00 89 1013.2
20220627103022 68 248 0.0 2.6 0.00 0.00 0.00 89 1013.2
20220627101519 67 92 0.0 2.6 0.00 0.00 0.00 90 1013.4
20220627100017 67 150 0.0 1.7 0.00 0.00 0.00 90 1013.5
20220627094515 67 119 0.0 3.5 0.00 0.00 0.00 90 1013.5
20220627093012 67 140 0.0 3.5 0.00 0.00 0.00 90 1013.6
20220627091512 66 140 0.9 2.6 0.00 0.00 0.00 90 1013.6
20220627090010 66 140 0.0 2.6 0.00 0.00 0.00 90 1013.7
20220627084508 66 137 0.0 2.6 0.00 0.00 0.00 90 1014.0
20220627083005 66 138 0.0 0.9 0.00 0.00 0.00 90 1014.0
20220627081505 66 137 0.0 2.6 0.00 0.00 0.00 90 1014.2
20220627080106 65 135 0.0 1.7 0.00 0.00 0.00 90 1014.3
20220627074602 65 135 0.0 1.7 0.00 0.00 0.00 90 1014.4
20220627073056 65 135 0.0 1.7 0.00 0.00 0.00 90 1014.5
20220627071555 65 135 0.0 1.7 0.00 0.00 0.00 90 1014.8
20220627070052 64 135 0.0 0.9 0.00 0.00 0.00 89 1015.0
20220627064551 64 135 0.0 0.9 0.00 0.00 0.00 88 1015.0
20220627063054 64 135 0.0 0.9 0.00 0.00 0.00 87 1015.1
20220627061549 64 135 0.0 1.7 0.00 0.00 0.00 87 1015.2
20220627060047 64 135 0.0 0.9 0.00 0.00 0.00 87 1015.4
20220627054545 64 135 0.0 0.0 0.00 0.00 0.00 87 1015.5
20220627053053 64 135 0.0 0.9 0.00 0.00 0.00 86 1015.4
20220627051556 64 135 0.0 0.9 0.00 0.00 0.00 86 1015.6
20220627050044 64 135 0.0 0.9 0.00 0.00 0.00 86 1015.8
20220627044539 64 135 0.0 0.9 0.00 0.00 0.00 85 1015.8
20220627043041 65 135 0.0 0.9 0.00 0.00 0.00 84 1015.8
20220627041535 65 135 0.0 0.0 0.00 0.00 0.00 84 1016.0
20220627040035 66 135 0.0 0.9 0.00 0.00 0.00 83 1016.1
20220627034545 66 135 0.0 0.9 0.00 0.00 0.00 83 1016.1
20220627033032 67 135 0.0 0.9 0.00 0.00 0.00 83 1016.1
20220627031535 67 135 0.0 0.9 0.00 0.00 0.00 83 1016.2
20220627030034 68 135 0.0 0.9 0.00 0.00 0.00 83 1016.4
20220627024530 68 135 0.0 0.9 0.00 0.00 0.00 82 1016.5
20220627023031 68 135 0.0 2.6 0.00 0.00 0.00 82 1016.5
20220627021529 69 135 0.0 0.9 0.00 0.00 0.00 82 1016.6
20220627020132 69 135 0.0 1.7 0.00 0.00 0.00 82 1016.5
20220627014532 70 136 0.0 0.9 0.00 0.00 0.00 82 1016.5
20220627013028 71 136 0.0 2.6 0.00 0.00 0.00 82 1016.5
20220627011528 71 69 0.0 2.6 0.00 0.00 0.00 81 1016.4
20220627010029 72 66 0.0 1.7 0.00 0.00 0.00 81 1016.3
20220627004527 73 77 0.0 1.7 0.00 0.00 0.00 80 1016.1
20220627003025 74 76 0.0 1.7 0.00 0.00 0.00 79 1015.9
20220627001525 74 355 0.0 1.7 0.00 0.00 0.00 78 1015.8
20220627000028 75 98 0.0 3.5 0.00 0.00 0.00 75 1015.7
20220626234525 76 9 0.0 2.6 0.00 0.00 0.00 73 1015.6
20220626233030 77 146 0.0 5.2 0.00 0.00 0.00 71 1015.5
20220626231523 78 26 0.0 4.3 0.00 0.00 0.00 68 1015.7
20220626230026 79 201 0.0 1.7 0.00 0.00 0.00 67 1015.7
20220626224522 79 129 0.0 4.3 0.00 0.00 0.00 65 1015.6
20220626223021 80 130 0.9 4.3 0.00 0.00 0.00 64 1015.6
20220626221532 81 137 0.0 4.3 0.00 0.00 0.00 63 1015.6
20220626220026 81 12 0.0 6.1 0.00 0.00 0.00 62 1015.7
20220626214517 82 155 0.9 6.1 0.00 0.00 0.00 60 1015.7
20220626213017 82 117 0.0 7.8 0.00 0.00 0.00 61 1015.9
20220626211516 83 110 0.9 5.2 0.00 0.00 0.00 59 1016.0
20220626210022 84 55 2.6 12.2 0.00 0.00 0.00 55 1016.1
20220626204515 85 140 0.0 4.3 0.00 0.00 0.00 57 1016.2